Regional Weather Roundup
Issued by NWS

Home | Current Version | Previous Version | Graphics & Text | Print | Product List | Glossary On
Versions: 1 2 3 4 5 6 7 8 9 10 11 12 13 14 15 16 17 18 19 20 21 22 23 24 25 26 27 28 29 30 31 32 33 34 35 36 37 38 39 40 41 42 43 44 45 46 47 48 49 50
000
ASUS45 KBOU 211007
RWRCO

WEATHER ROUNDUP FOR COLORADO
NATIONAL WEATHER SERVICE DENVER/BOULDER CO
300 AM MST SUN DEC 21 2014

NOTE: "FAIR" INDICATES FEW OR NO CLOUDS BELOW 12000 FEET WITH NO
SIGNIFICANT WEATHER AND/OR OBSTRUCTIONS TO VISIBILITY.

COZ001>005-013-030-031-211100-
...NORTHWEST COLORADO...

CITY           SKY/WX    TMP DP  RH WIND       PRES   REMARKS
CRAIG          MOCLDY    20  19  96 CALM      29.99F
HAYDEN         CLOUDY    25  21  86 E6        29.98F WCI  18
MEEKER         CLOUDY    31  25  78 VRB5      30.00F WCI  26
MOUNT WERNER   NOT AVBL
STEAMBOAT SPGS CLOUDY    27  25  93 E6        29.97F WCI  20
WALDEN         CLOUDY    28  21  74 S20G26    29.91F WCI  15
$$

COZ006>008-011-211100-
...WEST CENTRAL VALLEYS...

CITY           SKY/WX    TMP DP  RH WIND       PRES   REMARKS
GRAND JUNCTION CLOUDY    32  31  96 E5        30.08F WCI  27
MONTROSE       CLOUDY    31  28  89 SE5       30.12F WCI  26
EAGLE          CLOUDY    28  27  93 E5        30.05F WCI  23
RIFLE          CLOUDY    30  28  92 SE5       30.08F WCI  25
DELTA          CLOUDY    33  30  87 NE3       30.11F
NUCLA          CLOUDY    32  28  86 SE3       30.13F
$$

COZ017>023-064>068-211100-
...SOUTHWEST COLORADO...

CITY           SKY/WX    TMP DP  RH WIND       PRES   REMARKS
DURANGO        PTCLDY    25  23  92 NE3       30.07S
CORTEZ         CLEAR     25  23  92 E3        30.11S
PAGOSA SPRINGS CLOUDY    27  26  96 CALM      30.07S
TELLURIDE      CLOUDY    28  24  85 CALM      30.10F
WOLF CREEK PAS FOG       14  14 100 MISG      30.04S VSB 1/2
$$

COZ009-010-012-014-032>034-037-058>063-211100-
...CENTRAL COLORADO...

CITY           SKY/WX    TMP DP  RH WIND       PRES   REMARKS
ASPEN          LGT SNOW  22  20  92 S6        30.05F FOG     WCI  14
BUENA VISTA    CLEAR     32  15  49 W15G23    29.94F WCI  22
COPPER MTN     CLOUDY    19  14  79 W16       29.98F WCI   5
BERTHOUD PASS  CLOUDY    10   5  79 MISG      29.91F
COTTONWOOD PAS CLOUDY    30  14  51 W25G49    29.94S WCI  16
GUNNISON       CLOUDY    21  18  86 CALM      30.09F
KREMMLING      CLOUDY    30  23  74 W7        29.99F WCI  23
LEADVILLE      CLOUDY    22  14  71 N8        29.99F WCI  12
SALIDA         CLEAR     36  17  45 SW17G28   30.01F
SUNLIGHT       FLURRIES N/A N/A N/A CALM      30.03F
WILKERSON PASS PTCLDY    18  10  73 W9G21     29.93F WCI   6
$$

COZ069>075-211100-
...SAN LUIS VALLEY/SANGRE DE CRISTO MOUNTAINS...

CITY           SKY/WX    TMP DP  RH WIND       PRES   REMARKS
ALAMOSA        MOCLDY    10   6  84 CALM      30.02S
LA VETA PASS   PTCLDY    19  16  86 MISG      29.92F
SAGUACHE       CLOUDY    32  19  59 NE8       30.02S WCI  25
$$

COZ035-036-038>040-211100-
...NORTHERN COLORADO FRONT RANGE...

CITY           SKY/WX    TMP DP  RH WIND       PRES   REMARKS
DENVER INTL AP MOCLDY    30  20  66 S13       29.83F WCI  20
DMNS CITY PARK   N/A     31  20  61 SE5G12    29.82F WCI  27
AURORA         PTCLDY    28  19  67 S10       29.84F WCI  19
FRONT RANGE AP MOCLDY    28  23  80 S9        29.84F WCI  20
ERIE MUNI ARPT   N/A     22  18  85 CALM      29.81F
BOULDER MUN AP MOCLDY    32  21  64 E6        29.79F WCI  26
CENTENNIAL     MOCLDY    29  19  66 S9        29.84F WCI  20
BROOMFIELD     MOCLDY    41  18  38 W9        29.82F
FORT COLLINS   MOCLDY    25  18  74 CALM      29.82F
LONGMONT       MOCLDY    23  17  78 CALM      29.83F
$$

COZ041-046-047-076>085-087-088-211100-
...PIKES PEAK/PALMER DIVIDE AND SOUTHERN FOOTHILLS...

CITY           SKY/WX    TMP DP  RH WIND       PRES   REMARKS
COLO. SPRINGS  PTCLDY    27  17  66 VRB7      29.88F WCI  19
A. F. ACADEMY  PTCLDY    28  15  58 NE10      29.87F WCI  19
ELLICOTT       NOT AVBL
FALCON         PTCLDY    29  16  58 NW8       29.88F WCI  21
FORT CARSON    PTCLDY    26  18  72 NW7       29.86F WCI  18
LIMON          CLEAR     26  20  77 NW3       29.86F
MONUMENT HILL  PTCLDY    23  16  74 SW8       29.86F WCI  14
TRINIDAD       CLEAR     32  17  54 SW13      29.89S WCI  22
$$

COZ042>045-048>051-090-091-211100-
...NORTHEAST COLORADO...

CITY           SKY/WX    TMP DP  RH WIND       PRES   REMARKS
GREELEY ARPT   CLOUDY    21  10  63 CALM      29.82F
AKRON          PTCLDY    23  19  85 W10       29.83F WCI  12
BURLINGTON     MOCLDY    32  27  81 SW8       29.84F WCI  25
WRAY           CLOUDY    33  28  83 W8        29.85S WCI  26
STERLING       PTCLDY    21  19  93 S5        29.83F WCI  15
HOLYOKE        CLOUDY    37  28  70 W8        29.85S
FORT MORGAN    PTCLDY    19  16  88 W7        29.85F WCI  10
$$

COZ086-089-092>099-211100-
...SOUTHEAST COLORADO...

CITY           SKY/WX    TMP DP  RH WIND       PRES   REMARKS
PUEBLO         PTCLDY    21  16  81 W7        29.88S WCI  12
LA JUNTA       CLEAR     27  23  85 W10       29.87S WCI  17
LAMAR          CLEAR     21  19  92 SW8       29.85F WCI  11
SPRINGFIELD      N/A     29  23  78 W7        29.84S WCI  22
$$



USA.gov is the U.S. government's official web portal to all federal, state and local government web resources and services.